sat.trackr.live / text

‹ back to catalog

2025-313AG

NORAD 67278 · 2025-313AG

PAYLOAD ACTIVE UNKNOWN

§ Identity

Operator
Country
TBD
Launch date
2025-12-28
Launch site
VOSTO
Launch vehicle
Mass (kg)
RCS (m²)

External: N2YO · Heavens-Above · Gunter

§ Orbital elements

Epoch: 2026-05-25T03:28:27.459264Z

Period
94.59 min
Inclination
97.3902°
Eccentricity
0.0016407
Mean motion
15.22350318 rev/d
Perigee alt
487.5 km
Apogee alt
510.0 km
Semi-major
6,876.9 km
B*
2.8023e-4
RAAN
220.0802°
Arg perigee
88.9498°
Mean anomaly
271.3618°
Rev number
2,245

§ Raw data

2025-313AG1 67278U 25313AG  26145.14476226  .00006419  00000+0  28023-3 0  99912 67278  97.3902 220.0802 0016407  88.9498 271.3618 15.22350318 22451

JSON: /api/v1/satellites/67278 · /tle

For live sub-satellite position, see the globe view (requires WebGL).

§ Visibility from observer

Set your observer location to see the next 7 days of passes ≥ 10°. The values pass through the URL so the page stays shareable.

No JS? Fill the form by hand. The geolocation button needs JavaScript.